Regional Weather Roundup
Issued by NWS

Home | Current Version | Previous Version | Text Only | Print | Product List | Glossary Off
Versions: 1 2 3 4 5 6 7 8 9 10 11 12 13 14 15 16 17 18 19 20 21 22 23 24 25 26 27 28 29 30 31 32 33 34 35 36 37 38 39 40 41 42 43 44 45 46 47 48 49 50

000
ASUS43 KOAX 262002
RWRNE

WEATHER ROUNDUP FOR NEBRASKA
NATIONAL WEATHER SERVICE OMAHA NE
300 PM CDT SUN APR 26 2015

NOTES: SATELLITE DATA IS BEING USED TO AUGMENT CLOUD COVER ABOVE
       12000 FEET.
       "FAIR" INDICATES FEW OR NO CLOUDS BELOW 12,000 FEET WITH NO
       SIGNIFICANT WEATHER AND/OR OBSTRUCTIONS TO VISIBILITY.

  * THESE STATIONS DO NOT REPORT WEATHER SUCH AS RAIN...SNOW OR FOG.

NEZ001>004-019>022-054>056-262100-
NEBRASKA PANHANDLE

CITY           SKY/WX    TMP DP  RH WIND       PRES   REMARKS
SCOTTSBLUFF    CLOUDY    45  32  60 E16G24    29.97R HAZE
ALLIANCE       CLOUDY    47  42  83 E15       29.97S
CHADRON        CLOUDY    50  44  80 SE6       29.99S
KIMBALL        CLOUDY    43  42  96 E14       29.93R
SIDNEY         CLOUDY    42  41  96 E13       29.96S
$$

NEZ057>060-069>072-079>082-262100-
SOUTHWEST NEBRASKA

CITY           SKY/WX    TMP DP  RH WIND       PRES   REMARKS
IMPERIAL       LGT RAIN  43  41  93 E12       29.98R FOG
LEXINGTON      CLOUDY    52  43  72 E16G22    29.98S
MCCOOK         CLOUDY    47  44  90 E10       29.97R FOG
$$

NEZ005>010-023>029-035>040-094-262100-
NORTH CENTRAL NEBRASKA

CITY           SKY/WX    TMP DP  RH WIND       PRES   REMARKS
VALENTINE      CLOUDY    55  38  52 E10       30.02F
AINSWORTH      PTSUNNY   59  39  47 SE16G22   30.01F
BROKEN BOW     PTSUNNY   58  40  51 SE18      29.99S
ORD            MOSUNNY   59  38  45 E17G25    29.99F
$$

NEZ041-046>049-061>064-073>077-083>087-262100-
SOUTH CENTRAL NEBRASKA

CITY           SKY/WX    TMP DP  RH WIND       PRES   REMARKS
GRAND ISLAND   PTSUNNY   58  43  57 E17G24    30.01S
AURORA         PTSUNNY   57  43  60 E15       30.00S
HASTINGS       CLOUDY    55  43  63 SE15      29.99R
HEBRON         CLOUDY    56  43  61 E15       29.98F
HOLDREGE       CLOUDY    53  42  67 E17G24    29.97S
KEARNEY *      CLOUDY    54  43  66 E16       30.00S
YORK           PTSUNNY   57  45  62 E16       30.00S
$$

NEZ011>018-030>034-042>045-262100-
NORTHEAST NEBRASKA

CITY           SKY/WX    TMP DP  RH WIND       PRES   REMARKS
NORFOLK        SUNNY     61  30  31 E12G22    30.02F
ALBION         SUNNY     59  37  43 E10G24    30.01F
BLAIR          SUNNY     60  34  36 NE16      30.01F
COLUMBUS *     MOSUNNY   57  41  54 E13       30.04S
FREMONT        SUNNY     61  37  41 NE6G17    30.02F
TEKAMAH        SUNNY     64  33  31 E16G22    30.03F
WAYNE          SUNNY     64  28  25 E17       30.04F
$$

NEZ050>053-065>068-078-088>093-262100-
SOUTHEAST NEBRASKA

CITY           SKY/WX    TMP DP  RH WIND       PRES   REMARKS
LINCOLN        MOSUNNY   62  42  47 NE16G22   30.01F
OMAHA EPPLEY   MOSUNNY   62  36  37 E15       30.02F
BEATRICE       PTSUNNY   57  43  59 E13G22    29.99F
FALLS CITY     MOSUNNY   61  42  49 E17G23    29.97F
NEBRASKA CITY  SUNNY     61  33  34 E14       29.99F
PLATTSMOUTH    SUNNY     61  37  39 E12G18    30.01F
$$

NEZ044-045-051>053-067-262100-
OMAHA AREA

CITY           SKY/WX    TMP DP  RH WIND       PRES   REMARKS
OMAHA EPPLEY   MOSUNNY   62  36  37 E15       30.02F
BLAIR          SUNNY     60  34  36 NE16      30.01F
FREMONT        SUNNY     61  37  41 NE6G17    30.02F
MILLARD        SUNNY     60  38  44 E9G16     30.01F
OFFUTT AFB     SUNNY     62  41  46 E13G20    30.01F
PLATTSMOUTH    SUNNY     61  37  39 E12G18    30.01F
WAHOO          FAIR      60  40  47 E14G22    30.01F
$$


USA.gov is the U.S. government's official web portal to all federal, state and local government web resources and services.